Location: Nairn
(57.5833°N, 3.8667°W)
Time: 02:36:29
(UTC+00:00)

Vanguard 1 Rocket - Pass Details

Date: 03 December 2020
Orbit: 655 x 4221 km, 34.3° (Epoch: 20 January)

Event Time Altitude Azimuth Distance (km) Brightness Sun altitude
Exits shadow 01:02:35 25° 128° (SE) 5,580 11.1 -53.1°
Drops below altitude 10° 01:10:34 10° 108° (ESE) 6,167 11.6 -52.6°
Sets 01:15:17 0° 99° (E) 6,741 12.0 -52.3°
